Vorticity
20 24 18 9 6 7 11 12 8 7 7 7 9 10 8 9 9 9 9 9 9 11 10 9 9 8 9 8 8 8 7 7 7 6 6 6 5 5 6 6 7 7 7 7 8 7 5 4 4 4 4 4 5 6 5 5 6 7 9 12 13 15 16 16 14 12 11 9 8 9 10 10 10 10 8 7 6 6 6 6 7 6 6 7 5 4 9
16 23 16 7 8 11 11 8 6 6 8 9 10 9 8 8 8 8 9 10 10 10 9 8 7 7 7 7 7 6 6 6 6 6 6 5 5 6 7 7 7 7 8 7 6 5 4 3 3 3 4 5 5 5 5 7 9 11 13 15 15 16 16 14 12 11 10 11 11 10 9 7 7 6 6 6 7 7 7 7 6 5 5 5 5 6 9
12 12 9 7 11 11 7 5 7 8 9 9 9 8 8 9 9 9 10 9 8 8 7 7 7 6 6 6 5 5 5 6 5 5 6 6 7 8 8 8 7 7 6 5 4 3 3 3 4 5 6 5 5 6 8 11 13 15 16 16 15 14 13 12 11 12 12 12 12 11 10 9 9 9 7 8 7 6 6 6 6 6 6 7 8 6 7
6 5 7 10 11 8 6 6 9 10 9 8 8 8 9 9 9 9 8 7 7 6 6 6 6 6 5 5 5 5 5 5 6 7 9 10 9 9 8 7 6 6 4 3 2 2 4 5 6 6 5 6 8 11 13 15 16 16 15 14 13 12 11 11 11 11 11 10 9 9 9 9 9 9 8 7 6 5 6 7 9 9 7 10 11 6 8
6 9 11 12 9 6 7 8 8 8 7 8 10 10 10 8 7 7 6 6 6 5 6 6 5 5 5 5 6 7 8 9 10 10 9 8 7 6 5 5 4 4 3 3 4 4 6 6 5 6 8 11 14 16 17 16 15 15 13 12 12 12 11 10 9 10 10 9 8 7 7 7 6 5 5 5 5 7 10 12 13 11 8 10 10 8 9
11 12 10 9 8 8 8 7 7 7 8 10 11 9 7 5 6 6 5 5 5 5 5 5 5 6 8 9 10 11 11 10 8 7 4 4 4 4 4 4 3 4 4 5 6 5 6 7 9 12 14 16 17 17 16 15 14 13 12 11 11 11 11 10 10 11 10 8 7 5 5 4 3 4 5 6 9 11 12 13 12 10 9 9 9 8 8
11 10 9 9 8 7 6 6 8 10 10 10 8 6 5 5 5 5 4 4 5 5 7 8 11 12 12 12 11 8 7 5 3 3 2 3 4 4 4 4 4 5 5 5 6 7 9 12 15 17 17 16 16 14 14 13 12 11 11 11 11 10 11 11 10 10 8 5 4 3 3 4 4 6 8 9 10 11 12 13 12 10 9 8 8 7 7
10 9 7 6 6 6 7 9 10 9 7 7 5 4 4 4 4 4 5 8 9 11 13 13 12 11 8 6 5 4 3 3 2 2 4 5 5 4 4 4 5 6 7 9 12 15 17 18 18 17 16 15 14 12 11 11 11 11 11 11 11 10 10 9 7 6 5 3 3 4 5 6 7 10 11 11 12 12 13 14 11 8 7 6 6 7 7
7 6 5 5 7 8 9 8 7 6 4 5 4 3 4 6 7 9 12 13 13 12 10 7 5 4 3 3 4 3 3 3 3 5 5 4 4 5 7 10 12 15 17 19 20 20 19 19 17 15 13 11 11 10 11 11 11 11 11 10 9 7 6 4 4 4 4 4 6 8 8 8 11 12 13 13 13 12 12 12 10 7 6 5 7 7 6
4 5 6 8 8 8 7 6 5 5 5 6 7 8 10 12 13 13 11 9 7 5 4 3 3 4 4 4 4 3 4 5 3 2 3 6 10 15 19 21 22 22 22 21 19 18 17 15 12 12 11 11 11 12 12 13 11 9 8 6 5 4 3 3 4 5 6 8 10 10 9 10 12 12 13 13 12 11 10 9 8 7 7 8 9 8 6
6 8 8 8 7 7 6 6 7 7 8 10 12 13 13 11 10 7 4 3 3 3 4 5 5 5 5 5 5 4 3 2 2 7 15 22 25 25 25 23 22 20 18 16 15 13 12 11 11 12 12 13 13 12 10 9 7 5 4 4 3 3 4 5 6 8 10 11 12 11 11 12 12 12 14 12 9 8 7 7 8 7 5 6 7 5 4
9 8 8 7 7 8 9 9 11 11 12 11 10 8 6 4 4 3 3 5 6 6 7 6 5 6 6 4 3 1 1 7 17 26 28 26 23 20 18 17 16 14 12 12 11 11 12 13 13 13 12 11 9 8 7 5 4 4 4 3 4 5 7 9 10 11 12 11 11 10 9 10 12 13 13 10 8 8 7 8 10 6 2 3 3 2 2
8 8 8 9 9 10 11 12 11 10 8 6 4 3 3 3 5 5 6 8 8 7 7 6 5 5 2 -1 1 6 15 26 31 26 19 16 15 14 13 12 11 10 11 12 13 13 14 13 11 9 7 6 5 5 5 4 3 3 4 6 8 10 11 11 11 12 11 9 10 11 8 10 13 11 6 6 7 7 5 4 2 -2 -0 4 3 1 2
9 9 10 11 11 10 9 8 6 4 3 2 2 4 6 6 8 8 8 9 7 5 5 5 3 -0 -2 3 14 24 29 28 21 13 11 12 12 12 11 10 11 12 14 14 13 11 10 8 6 5 4 4 5 5 4 4 4 6 8 10 11 11 11 10 10 10 9 9 11 12 9 10 12 8 5 7 7 5 4 5 3 1 4 5 2 2 3
10 10 10 8 7 5 3 2 2 2 3 5 6 8 8 8 9 9 7 6 5 3 3 1 -2 0 9 21 29 29 23 16 10 10 11 11 11 11 12 13 14 14 13 10 7 7 6 5 4 4 4 5 5 4 5 6 8 10 12 12 11 11 11 10 10 10 10 11 12 10 7 8 10 8 7 7 6 5 6 6 5 5 6 5 4 5 5
8 7 5 3 1 2 2 3 5 6 7 8 8 8 8 7 7 6 4 4 2 0 -0 0 5 15 24 28 26 20 13 9 9 10 10 11 13 14 14 13 12 10 8 5 5 5 5 4 4 4 5 5 6 7 8 10 11 12 12 10 10 11 10 10 11 12 11 11 11 8 7 9 10 8 5 5 5 6 4 2 2 4 4 5 6 6 5
3 2 2 2 3 5 5 7 7 7 8 8 7 8 7 6 5 4 2 1 -0 1 5 12 20 25 24 19 15 11 8 8 9 10 11 14 15 13 11 9 7 7 6 5 5 5 4 4 5 6 6 7 8 10 11 11 12 11 10 10 11 10 10 11 13 11 9 9 9 8 8 8 8 7 5 4 4 3 2 4 6 6 3 3 5 4 3
2 4 5 5 6 7 7 7 7 6 6 6 6 6 4 3 3 2 2 3 7 12 18 22 23 21 16 13 11 9 8 9 11 12 13 13 12 9 7 6 5 6 6 4 5 5 5 6 7 7 9 10 11 11 11 11 10 9 9 11 11 10 10 12 11 9 8 9 9 8 6 5 5 5 5 4 2 1 3 6 9 8 5 3 2 2 2
6 7 7 7 7 6 5 5 4 4 4 4 5 5 5 6 8 10 12 16 19 22 22 20 17 15 13 11 10 10 11 11 12 12 11 9 7 6 5 6 6 5 5 5 6 7 7 9 9 10 11 12 11 10 9 10 10 9 9 10 10 9 10 10 9 9 8 8 8 6 4 3 3 2 3 5 5 6 7 6 5 4 2 1 1 4 5
6 5 5 5 5 5 5 6 7 8 9 10 12 13 15 16 18 20 20 20 20 18 17 14 13 12 12 11 11 12 11 11 10 9 7 7 6 5 5 5 5 5 6 7 8 9 10 11 11 11 11 10 9 8 9 9 10 9 8 9 10 10 9 9 10 9 8 7 7 5 3 4 6 5 6 8 7 6 6 3 2 2 1 2 5 8 11
7 8 9 11 12 13 13 14 14 15 16 17 18 19 19 19 19 18 18 17 16 15 14 13 12 13 12 11 11 10 8 8 8 6 5 6 5 5 6 6 7 8 8 9 10 11 12 11 10 10 8 8 9 9 9 10 9 8 9 10 11 10 9 10 10 8 7 5 4 3 4 8 10 10 9 8 5 2 2 2 3 5 6 8 11 15 20
15 15 16 17 16 17 17 17 18 19 19 19 18 18 17 16 15 15 15 15 14 13 12 12 11 11 11 9 8 7 6 7 7 4 5 6 6 7 8 8 9 9 10 11 12 11 10 9 8 8 8 9 10 9 9 10 9 9 10 11 11 11 10 9 7 6 5 4 4 6 7 8 9 7 5 3 2 2 4 5 7 10 12 16 21 26 31
15 15 15 16 17 18 19 19 19 18 17 16 14 13 13 12 12 13 13 12 11 10 10 9 8 8 8 7 6 6 6 7 7 6 8 8 8 9 9 9 11 11 11 11 10 9 9 8 7 9 9 9 10 9 9 10 10 10 11 11 11 11 8 6 6 4 4 6 8 9 8 6 5 3 1 2 3 5 7 9 11 15 19 24 29 32 34
13 15 18 19 19 20 19 17 16 15 13 13 13 12 12 10 10 11 10 9 9 8 7 7 6 6 7 7 7 8 8 9 9 9 10 10 10 11 11 11 12 11 10 10 8 7 8 8 8 10 10 9 10 9 9 10 11 11 11 10 10 8 5 4 6 6 7 8 8 8 6 4 2 2 2 3 4 6 10 12 15 19 25 30 32 32 30
13 15 18 20 19 18 17 15 15 14 14 14 14 13 12 11 10 10 9 8 8 8 8 8 8 8 8 9 9 9 9 10 11 10 11 12 12 13 13 11 11 9 8 8 7 7 9 9 9 11 10 9 10 9 9 11 11 10 10 9 7 5 5 6 7 8 8 8 7 5 3 2 2 3 4 4 3 5 10 14 19 24 29 33 32 28 22
12 12 13 15 15 15 15 14 14 14 14 14 14 14 14 13 12 11 11 10 10 10 9 9 9 9 9 9 10 10 10 10 11 11 12 12 12 12 11 9 8 8 7 7 8 8 9 10 10 10 9 8 9 10 11 11 10 9 9 7 5 6 8 9 9 8 7 6 5 3 2 1 2 1 1 2 5 9 14 18 23 27 30 30 28 21 13
12 11 11 11 10 11 11 11 11 11 11 11 11 11 11 10 10 9 9 9 9 10 9 9 9 9 9 9 10 10 10 10 10 11 11 11 10 9 8 7 7 7 7 8 9 9 10 10 10 9 9 9 10 11 11 10 9 9 8 7 8 9 9 9 8 7 6 4 4 4 4 4 3 1 2 5 9 14 18 21 25 29 28 26 22 15 8
11 11 11 11 11 11 11 9 9 9 9 9 10 10 9 9 8 8 8 8 9 10 9 10 10 11 11 11 11 11 11 10 11 11 10 9 8 7 7 7 7 7 7 8 9 9 9 10 10 9 9 9 11 11 10 10 9 8 8 9 10 9 9 8 7 6 4 3 4 5 5 4 3 4 7 10 10 14 20 23 25 28 26 20 15 10 6
12 12 11 11 11 11 10 9 9 10 9 10 11 11 10 11 10 10 10 10 11 12 12 12 13 13 14 14 13 12 11 10 10 10 9 8 7 6 6 6 6 7 8 9 9 9 9 10 10 9 8 10 12 12 11 9 9 8 9 10 9 8 7 6 5 4 4 4 4 5 5 5 5 7 9 10 10 15 22 24 24 25 20 12 8 6 6
14 13 12 12 12 12 12 12 12 12 11 11 11 11 11 12 12 13 13 14 14 14 14 14 14 14 14 13 12 11 10 9 9 8 7 6 6 6 6 7 7 8 9 9 9 10 11 11 10 9 10 12 13 12 10 8 9 10 10 10 8 6 5 4 3 4 4 3 4 5 6 6 7 7 8 9 11 16 21 22 20 18 14 9 7 7 7
16 16 15 16 15 15 15 15 14 14 14 13 13 13 13 13 13 14 15 15 14 14 13 12 12 11 11 10 10 9 9 8 7 7 7 6 7 7 7 7 8 8 9 9 10 11 12 11 10 11 12 12 11 10 9 9 10 10 9 8 6 5 4 4 4 4 4 4 5 6 6 6 7 7 8 8 10 14 19 20 18 16 12 9 8 9 8
17 16 16 16 16 16 16 15 15 16 16 16 16 16 15 15 14 14 14 14 13 13 12 11 10 9 9 9 9 8 8 6 6 7 8 8 7 7 7 8 9 9 10 11 12 12 11 11 12 12 11 11 10 10 11 10 10 9 7 5 5 4 4 4 4 4 4 5 5 5 4 5 7 8 9 9 10 14 19 20 18 16 13 10 10 10 10
12 13 13 14 15 16 16 15 16 17 17 17 18 18 17 17 15 14 14 14 13 11 11 9 9 9 9 9 8 8 7 7 7 8 8 8 7 8 8 9 10 10 11 12 12 10 11 12 12 10 10 11 11 11 10 9 8 7 6 5 4 4 4 5 4 4 5 6 6 6 5 6 8 9 10 11 11 14 18 20 18 17 15 13 12 12 11
7 8 10 11 12 13 14 15 17 18 17 16 16 17 17 18 17 16 15 14 13 12 11 10 10 10 10 9 9 9 8 7 8 8 8 8 8 8 8 9 9 9 10 10 10 11 12 13 11 9 11 13 12 10 9 8 6 6 5 4 4 5 5 4 4 5 6 5 5 6 7 9 10 10 9 9 11 15 19 20 18 17 16 14 13 12 11
4 5 6 8 9 10 12 14 14 16 17 16 15 15 15 14 15 15 15 14 14 14 13 12 12 11 10 9 9 9 8 7 8 8 8 8 8 8 7 7 9 10 10 11 12 13 14 12 10 11 12 12 10 8 7 7 6 5 4 4 4 5 5 4 4 6 6 5 6 7 9 11 11 9 8 9 11 15 19 19 17 17 17 15 14 12 11
4 4 4 5 6 6 8 10 11 12 14 16 16 15 14 13 13 12 12 12 13 12 11 11 10 9 8 8 8 8 8 7 8 8 8 7 7 7 7 8 10 11 11 12 13 14 13 11 11 12 12 10 8 7 7 7 6 4 3 4 6 6 5 4 6 6 6 6 8 9 10 10 9 8 8 10 12 15 19 20 19 18 17 15 13 12 11
5 4 3 4 5 4 5 7 7 8 11 14 15 15 15 15 14 11 10 11 11 10 8 8 8 8 7 7 8 8 8 8 8 8 6 6 7 7 9 10 11 11 12 13 13 13 13 12 12 12 11 9 7 7 7 6 4 3 4 6 6 5 4 5 6 6 6 7 8 8 9 9 9 9 9 10 13 17 21 22 21 18 17 15 13 12 12
3 4 4 4 4 5 4 4 5 5 7 10 13 13 15 17 15 12 11 11 10 8 7 7 8 8 8 8 8 8 7 8 8 5 5 7 9 9 10 11 11 11 14 15 13 13 14 14 12 10 9 7 7 6 6 4 3 4 6 6 5 5 5 6 7 7 6 6 7 8 9 10 9 8 9 10 14 19 23 22 20 17 15 14 12 12 12
2 3 4 3 3 5 5 4 5 4 4 6 9 11 14 16 14 12 13 14 11 9 9 9 9 9 8 8 8 7 7 7 6 5 7 10 10 10 10 11 11 14 17 17 15 15 16 13 10 8 8 7 6 6 4 3 4 5 6 6 6 6 7 7 7 7 6 7 9 11 12 11 9 8 9 12 16 21 23 21 18 16 15 13 12 11 10
3 3 4 3 3 5 5 4 5 5 3 4 6 7 10 13 12 11 15 16 12 11 11 10 9 9 9 7 7 8 8 7 5 6 9 10 10 10 11 11 13 17 18 16 14 15 14 11 8 8 7 6 6 5 3 4 5 6 6 6 6 6 7 7 6 6 7 9 11 12 11 10 9 8 10 14 18 21 22 20 18 17 14 13 12 10 8
4 3 4 3 2 4 6 5 5 5 4 4 4 6 9 11 10 12 16 16 12 11 12 11 9 9 9 8 8 8 8 7 7 9 10 9 9 11 12 12 16 19 17 15 15 14 11 8 7 7 6 6 5 4 3 5 6 6 6 6 6 7 7 6 6 7 8 10 11 12 11 10 8 8 11 15 19 21 21 19 18 16 13 11 11 9 7
6 4 5 4 2 4 7 6 5 6 5 4 3 5 8 9 9 11 15 14 12 12 13 12 11 9 9 8 8 8 7 8 9 10 9 9 10 11 12 15 18 18 15 15 14 12 8 7 7 6 6 5 5 4 4 6 6 6 6 7 7 7 7 5 5 8 9 10 11 12 11 9 9 9 12 17 22 22 20 18 16 15 12 10 10 9 6
7 5 5 4 2 3 6 7 5 6 6 4 3 4 6 7 9 12 14 14 13 14 14 12 11 10 9 9 8 7 8 9 10 9 9 10 10 12 15 17 17 16 15 15 13 9 7 6 6 6 5 5 4 4 5 5 6 5 6 7 7 7 5 5 7 10 11 10 12 12 10 8 9 11 14 19 23 22 18 15 14 13 11 10 9 8 6
8 6 6 5 1 2 6 7 6 6 6 5 3 4 5 6 8 12 15 15 14 15 14 13 12 11 10 9 8 8 9 10 9 8 9 10 12 14 16 17 17 16 16 14 10 7 6 6 5 5 5 4 4 4 5 5 6 6 6 8 7 6 5 6 9 11 11 11 12 11 9 8 10 13 16 21 23 21 16 14 13 12 11 10 8 7 5
8 6 7 6 2 2 5 6 5 6 6 5 3 4 5 6 8 11 14 15 16 16 15 14 13 12 10 8 8 9 10 10 8 8 10 12 14 15 16 17 18 17 15 11 8 6 6 6 5 5 5 4 4 5 5 5 6 7 7 7 7 5 6 8 10 11 12 12 11 10 8 8 11 16 19 22 23 20 16 13 12 12 11 9 7 6 5
7 7 8 6 3 3 4 5 5 5 5 5 4 4 4 5 7 10 13 15 16 16 15 14 14 11 8 8 10 11 10 8 8 10 13 14 15 16 16 18 18 16 12 9 7 6 5 5 5 5 4 4 5 6 6 6 7 7 7 7 7 6 8 10 11 11 12 12 10 9 9 9 12 18 22 24 22 19 15 13 12 12 11 9 7 5 4
7 7 7 5 4 3 4 5 5 5 5 5 4 4 4 5 7 9 13 15 16 15 15 15 13 9 9 11 12 11 8 8 10 13 14 15 16 17 18 18 17 13 10 8 7 5 5 6 5 4 5 5 5 6 6 6 7 7 7 7 7 8 9 10 11 11 12 11 10 9 9 9 13 21 25 25 21 16 13 13 12 11 10 8 6 5 5
7 7 7 6 4 4 4 5 5 5 5 5 4 4 5 6 6 9 13 15 15 14 15 14 11 10 12 14 12 9 8 10 12 14 15 17 18 18 17 16 14 11 8 7 6 5 5 6 5 4 4 5 5 6 7 6 6 7 7 7 8 9 10 11 11 11 12 12 11 9 8 10 16 23 27 25 19 14 12 12 12 11 9 7 5 5 5
7 7 6 5 4 3 4 6 6 5 5 5 5 5 5 6 7 10 14 15 15 15 14 12 12 14 15 13 10 8 10 12 14 15 18 19 19 17 16 15 12 9 7 6 5 5 5 5 5 4 5 6 6 7 7 6 6 7 7 7 8 9 11 12 12 11 11 12 10 7 7 12 20 26 28 24 18 13 11 12 12 10 8 6 5 5 5
8 7 6 4 4 4 5 5 5 5 5 5 5 5 5 6 8 13 15 15 14 14 13 13 15 15 13 10 9 10 12 14 16 18 20 20 18 16 15 13 9 7 6 6 5 5 5 5 5 5 5 6 6 6 5 5 6 7 7 8 8 10 12 13 12 11 11 11 8 6 9 16 24 29 27 21 16 13 12 12 11 10 7 5 5 5 5
8 7 5 4 4 6 6 5 5 5 5 5 6 5 6 7 11 14 16 15 13 13 13 15 15 13 10 10 12 12 13 15 19 20 20 19 17 15 12 10 8 7 6 5 5 5 5 5 5 5 5 6 6 6 5 5 6 7 8 8 9 11 12 13 12 11 11 9 6 7 13 21 27 29 25 18 14 12 12 11 11 9 7 5 5 6 5
7 5 4 4 5 6 6 5 5 5 5 6 6 5 6 9 12 15 15 14 13 13 15 15 13 11 11 12 13 14 15 19 21 20 18 18 17 13 10 8 7 6 5 5 5 5 5 5 5 6 6 6 6 6 6 6 7 8 9 9 10 11 12 13 12 11 10 8 6 8 15 24 30 28 21 15 11 10 10 11 11 9 6 4 5 6 6
Height
5785 5786 5786 5787 5788 5788 5789 5789 5789 5789 5789 5789 5789 5789 5789 5789 5788 5788 5788 5787 5787 5786 5785 5785 5784 5783 5782 5781 5780 5779 5778 5777 5776 5775 5773 5772 5770 5769 5767 5766 5764 5762 5761 5759 5757 5755 5754 5752 5750 5748 5745 5743 5741 5738 5736 5733 5730 5728 5725 5722 5719 5715 5713 5710 5707 5705 5703 5700 5696 5694 5692 5688 5685 5682 5678 5675 5672 5669 5666 5662 5657 5652 5650 5648 5644 5639 5637
5786 5786 5786 5787 5788 5788 5789 5789 5789 5789 5789 5789 5789 5789 5789 5788 5788 5788 5787 5787 5786 5785 5785 5784 5783 5782 5781 5780 5779 5778 5777 5776 5774 5773 5771 5770 5768 5767 5765 5763 5762 5760 5758 5756 5755 5752 5751 5749 5747 5744 5742 5740 5737 5734 5731 5729 5726 5723 5720 5717 5714 5711 5708 5705 5702 5700 5698 5695 5692 5689 5687 5685 5681 5678 5674 5671 5668 5665 5662 5659 5654 5649 5647 5644 5639 5637 5634
5786 5787 5787 5788 5788 5788 5789 5789 5789 5789 5789 5789 5789 5789 5788 5788 5788 5787 5787 5786 5786 5785 5784 5783 5782 5781 5780 5779 5778 5777 5775 5774 5773 5771 5769 5768 5766 5764 5763 5761 5759 5758 5756 5754 5752 5750 5747 5745 5743 5741 5738 5736 5733 5730 5727 5724 5722 5719 5716 5713 5711 5708 5705 5701 5697 5695 5692 5690 5687 5684 5682 5680 5677 5674 5671 5668 5665 5662 5658 5655 5650 5645 5641 5638 5633 5631 5629
5787 5787 5788 5788 5788 5789 5789 5789 5789 5789 5789 5789 5789 5788 5788 5788 5787 5787 5786 5786 5785 5784 5783 5782 5781 5780 5779 5778 5777 5775 5774 5772 5771 5769 5767 5766 5764 5762 5760 5759 5757 5755 5753 5751 5749 5747 5744 5742 5739 5737 5734 5731 5729 5726 5723 5720 5717 5714 5712 5709 5707 5705 5702 5698 5695 5692 5688 5685 5682 5680 5677 5675 5672 5669 5666 5664 5661 5658 5654 5650 5646 5641 5636 5633 5628 5623 5621
5787 5788 5788 5788 5789 5789 5789 5789 5789 5789 5789 5789 5788 5788 5788 5787 5787 5786 5786 5785 5784 5783 5782 5781 5780 5779 5778 5776 5775 5773 5772 5770 5768 5767 5765 5763 5762 5760 5758 5756 5754 5752 5750 5748 5746 5743 5741 5738 5735 5733 5730 5727 5724 5722 5719 5716 5713 5711 5708 5705 5703 5701 5699 5696 5693 5690 5686 5682 5678 5675 5672 5670 5667 5664 5662 5659 5656 5653 5649 5645 5641 5636 5631 5628 5624 5618 5614
5788 5788 5788 5789 5789 5789 5789 5789 5789 5789 5789 5788 5788 5788 5787 5787 5786 5785 5785 5784 5783 5782 5781 5780 5779 5777 5776 5775 5773 5771 5770 5768 5766 5765 5763 5761 5759 5757 5755 5753 5751 5749 5746 5744 5742 5739 5737 5734 5731 5729 5726 5723 5720 5718 5715 5712 5710 5707 5704 5702 5699 5697 5696 5693 5690 5688 5683 5678 5675 5671 5668 5665 5662 5660 5657 5654 5650 5647 5644 5640 5636 5631 5626 5622 5619 5614 5609
5788 5788 5789 5789 5789 5789 5789 5789 5789 5789 5788 5788 5788 5787 5787 5786 5785 5785 5784 5783 5782 5781 5779 5778 5777 5776 5774 5773 5771 5769 5768 5766 5764 5762 5761 5758 5756 5754 5752 5750 5748 5745 5743 5740 5738 5735 5733 5730 5727 5725 5722 5719 5716 5714 5712 5709 5707 5704 5701 5698 5695 5693 5692 5689 5686 5685 5682 5676 5672 5668 5665 5661 5658 5655 5652 5649 5645 5641 5638 5634 5630 5625 5621 5616 5612 5609 5605
5789 5789 5789 5789 5789 5789 5789 5789 5789 5789 5788 5788 5787 5787 5786 5785 5784 5783 5782 5782 5780 5779 5778 5777 5775 5774 5773 5771 5769 5768 5766 5764 5762 5760 5758 5755 5753 5751 5749 5746 5744 5741 5739 5736 5733 5731 5728 5726 5724 5721 5718 5716 5713 5711 5708 5706 5704 5701 5698 5695 5692 5689 5687 5684 5682 5681 5678 5674 5669 5665 5662 5658 5654 5651 5648 5643 5640 5636 5632 5629 5625 5620 5616 5611 5607 5604 5600
5789 5789 5789 5789 5789 5789 5789 5789 5789 5788 5788 5787 5787 5786 5785 5784 5783 5782 5781 5780 5779 5778 5777 5775 5774 5773 5771 5769 5767 5765 5763 5761 5759 5757 5754 5752 5750 5747 5745 5742 5740 5737 5734 5732 5729 5727 5724 5722 5720 5717 5715 5713 5710 5708 5705 5703 5700 5697 5694 5691 5688 5685 5683 5680 5677 5675 5673 5670 5666 5661 5657 5654 5650 5647 5643 5639 5635 5631 5627 5624 5619 5614 5609 5606 5602 5597 5593
5790 5790 5790 5790 5790 5789 5789 5789 5788 5788 5787 5787 5786 5785 5784 5783 5782 5781 5780 5779 5778 5777 5775 5774 5772 5771 5769 5767 5765 5763 5760 5758 5756 5753 5751 5748 5746 5743 5740 5738 5735 5733 5730 5728 5726 5724 5721 5719 5717 5714 5712 5709 5707 5704 5702 5699 5697 5694 5691 5688 5685 5681 5678 5675 5672 5670 5668 5665 5661 5657 5651 5648 5645 5642 5638 5635 5631 5627 5623 5619 5615 5609 5603 5599 5596 5590 5584
5790 5790 5790 5790 5790 5789 5789 5788 5788 5787 5786 5786 5785 5784 5783 5782 5781 5780 5779 5778 5777 5775 5774 5772 5770 5769 5767 5764 5762 5760 5757 5755 5752 5750 5747 5744 5742 5739 5737 5734 5732 5730 5727 5725 5723 5721 5719 5716 5714 5711 5709 5707 5704 5701 5699 5696 5693 5691 5688 5685 5682 5678 5675 5671 5668 5665 5662 5660 5656 5652 5648 5643 5640 5637 5634 5630 5625 5622 5618 5614 5609 5604 5597 5593 5589 5583 5578
5791 5791 5790 5790 5789 5789 5788 5788 5787 5786 5786 5785 5784 5784 5783 5782 5780 5779 5778 5777 5775 5773 5772 5770 5768 5766 5764 5762 5759 5757 5754 5751 5749 5746 5743 5741 5738 5736 5734 5731 5729 5727 5725 5723 5721 5718 5716 5714 5711 5709 5706 5704 5701 5699 5696 5693 5691 5688 5685 5681 5678 5675 5671 5668 5664 5661 5657 5654 5651 5647 5643 5639 5635 5632 5629 5625 5620 5616 5613 5609 5602 5596 5592 5588 5584 5577 5571
5791 5791 5790 5790 5789 5789 5788 5787 5787 5786 5785 5785 5784 5783 5782 5781 5779 5778 5776 5775 5773 5771 5770 5768 5766 5764 5761 5759 5756 5753 5750 5748 5745 5743 5741 5738 5736 5734 5732 5729 5727 5725 5723 5720 5718 5716 5714 5711 5709 5706 5704 5701 5699 5696 5693 5691 5688 5685 5682 5678 5675 5671 5668 5664 5660 5657 5653 5649 5645 5641 5637 5634 5632 5628 5624 5620 5615 5610 5606 5604 5598 5591 5586 5582 5576 5570 5563
5791 5791 5790 5790 5789 5788 5788 5787 5787 5786 5785 5784 5783 5782 5780 5779 5777 5776 5774 5773 5771 5769 5767 5765 5763 5761 5758 5756 5753 5750 5747 5745 5743 5740 5738 5736 5734 5732 5730 5727 5725 5723 5720 5718 5716 5713 5711 5709 5707 5704 5701 5699 5696 5694 5691 5688 5685 5682 5678 5675 5671 5667 5664 5659 5655 5652 5648 5644 5641 5637 5632 5630 5628 5624 5619 5614 5609 5603 5597 5594 5590 5584 5578 5572 5566 5560 5554
5791 5791 5790 5789 5789 5788 5788 5787 5786 5785 5784 5783 5781 5780 5779 5777 5776 5774 5772 5771 5769 5767 5765 5763 5760 5758 5755 5752 5749 5747 5744 5742 5740 5738 5736 5734 5732 5730 5727 5725 5723 5720 5718 5716 5713 5711 5709 5706 5704 5701 5699 5696 5693 5690 5687 5684 5681 5678 5674 5671 5667 5663 5660 5655 5651 5648 5644 5640 5636 5632 5628 5625 5621 5617 5612 5607 5602 5597 5590 5585 5581 5577 5571 5564 5558 5553 5547
5791 5791 5790 5789 5789 5788 5787 5786 5785 5784 5782 5781 5780 5778 5777 5775 5774 5772 5770 5768 5766 5764 5762 5760 5757 5755 5752 5749 5747 5744 5742 5740 5738 5736 5734 5732 5730 5728 5725 5723 5721 5718 5716 5714 5711 5709 5706 5704 5701 5698 5696 5693 5690 5687 5684 5680 5677 5675 5671 5667 5663 5660 5656 5652 5648 5644 5640 5636 5632 5627 5623 5620 5616 5612 5607 5603 5598 5592 5585 5580 5577 5573 5565 5556 5550 5546 5539
5791 5791 5790 5789 5788 5787 5786 5785 5783 5782 5781 5779 5778 5776 5775 5773 5771 5770 5768 5766 5764 5761 5759 5757 5754 5752 5749 5747 5745 5743 5741 5738 5736 5734 5732 5730 5728 5726 5723 5721 5719 5716 5714 5712 5709 5707 5704 5701 5699 5696 5693 5690 5687 5683 5681 5677 5674 5671 5667 5664 5660 5656 5652 5648 5644 5641 5637 5633 5629 5624 5619 5616 5613 5608 5603 5599 5594 5586 5579 5574 5571 5568 5562 5551 5540 5534 5527
5791 5790 5789 5788 5787 5786 5785 5783 5782 5781 5779 5777 5776 5774 5773 5771 5769 5767 5765 5763 5761 5758 5756 5754 5751 5749 5747 5745 5743 5741 5739 5737 5734 5732 5730 5728 5726 5724 5722 5719 5717 5715 5712 5710 5707 5704 5701 5698 5695 5693 5690 5687 5683 5680 5677 5674 5670 5666 5663 5659 5656 5652 5648 5645 5641 5637 5633 5629 5625 5620 5616 5612 5609 5603 5597 5593 5589 5581 5574 5566 5559 5555 5552 5545 5534 5523 5515
5791 5790 5789 5787 5786 5785 5783 5782 5780 5779 5777 5775 5774 5772 5770 5768 5766 5764 5762 5760 5757 5755 5753 5751 5749 5747 5745 5743 5741 5739 5737 5735 5733 5730 5728 5726 5724 5722 5720 5717 5715 5712 5710 5707 5704 5701 5698 5695 5692 5689 5686 5683 5680 5676 5673 5670 5666 5662 5658 5655 5651 5648 5644 5641 5637 5633 5629 5625 5621 5616 5611 5607 5603 5598 5591 5585 5580 5573 5566 5560 5552 5542 5536 5533 5526 5515 5504
5790 5789 5787 5786 5785 5783 5781 5780 5778 5776 5774 5772 5771 5769 5767 5765 5763 5761 5759 5757 5755 5753 5751 5749 5747 5745 5743 5741 5739 5737 5735 5733 5731 5729 5726 5724 5722 5720 5718 5715 5713 5710 5707 5704 5701 5698 5695 5692 5689 5686 5683 5680 5676 5672 5669 5666 5662 5658 5654 5650 5647 5643 5639 5636 5632 5629 5625 5620 5615 5610 5604 5599 5594 5590 5584 5577 5571 5564 5556 5551 5546 5538 5527 5521 5516 5508 5497
5789 5788 5786 5784 5783 5781 5779 5777 5775 5773 5771 5770 5768 5766 5764 5762 5760 5758 5756 5755 5753 5751 5749 5747 5745 5743 5742 5740 5737 5735 5733 5731 5729 5727 5725 5723 5720 5718 5715 5712 5710 5707 5704 5701 5698 5695 5692 5689 5686 5683 5679 5676 5672 5668 5665 5661 5658 5654 5650 5646 5643 5639 5635 5631 5627 5624 5620 5615 5610 5603 5597 5591 5586 5580 5574 5568 5562 5556 5548 5541 5537 5532 5523 5514 5507 5499 5489
5788 5786 5784 5783 5781 5779 5777 5775 5773 5771 5769 5767 5765 5764 5762 5760 5758 5757 5755 5753 5751 5749 5747 5746 5744 5742 5740 5738 5736 5734 5732 5730 5728 5725 5723 5720 5718 5715 5712 5710 5707 5704 5701 5698 5695 5692 5689 5686 5683 5679 5676 5673 5669 5665 5661 5657 5654 5650 5646 5643 5639 5635 5631 5628 5624 5619 5615 5610 5606 5600 5593 5587 5581 5574 5569 5564 5557 5551 5544 5535 5527 5520 5512 5503 5494 5486 5477
5787 5785 5783 5781 5779 5777 5775 5773 5771 5769 5767 5766 5764 5762 5761 5759 5757 5755 5753 5751 5750 5748 5746 5744 5742 5740 5738 5736 5734 5732 5730 5728 5726 5723 5721 5718 5715 5713 5710 5707 5704 5701 5698 5695 5692 5689 5686 5683 5679 5676 5672 5669 5665 5661 5658 5654 5650 5646 5643 5639 5636 5632 5628 5623 5619 5615 5610 5605 5601 5596 5590 5584 5578 5572 5566 5559 5552 5545 5537 5529 5520 5510 5501 5491 5481 5472 5464
5786 5784 5782 5779 5777 5775 5773 5771 5770 5768 5766 5764 5763 5761 5759 5758 5756 5754 5752 5750 5748 5746 5744 5743 5741 5739 5737 5735 5732 5730 5728 5726 5723 5721 5718 5715 5713 5710 5707 5704 5701 5699 5696 5693 5690 5686 5683 5680 5676 5673 5669 5665 5662 5658 5654 5650 5647 5643 5639 5636 5632 5628 5624 5619 5615 5611 5607 5603 5598 5594 5588 5581 5575 5569 5562 5555 5547 5538 5529 5521 5512 5503 5492 5482 5472 5463 5455
5785 5783 5781 5779 5776 5774 5773 5771 5769 5767 5765 5764 5762 5760 5758 5757 5755 5753 5751 5749 5747 5745 5743 5741 5739 5737 5735 5733 5730 5728 5726 5723 5721 5718 5716 5713 5710 5707 5705 5702 5699 5696 5693 5690 5687 5683 5680 5676 5673 5669 5666 5662 5658 5654 5650 5647 5643 5639 5636 5632 5628 5624 5620 5616 5612 5607 5602 5599 5595 5591 5585 5576 5568 5561 5555 5548 5541 5532 5521 5510 5501 5493 5484 5475 5466 5457 5449
5785 5783 5781 5778 5776 5774 5772 5771 5769 5767 5765 5763 5761 5759 5757 5755 5753 5751 5749 5747 5745 5743 5741 5739 5737 5735 5733 5730 5728 5726 5723 5721 5718 5716 5713 5711 5708 5705 5702 5700 5697 5693 5690 5687 5684 5680 5677 5673 5669 5666 5662 5658 5655 5651 5647 5643 5640 5636 5632 5628 5624 5621 5616 5612 5608 5603 5597 5593 5589 5586 5581 5574 5565 5556 5549 5540 5532 5524 5514 5503 5493 5485 5477 5471 5464 5454 5444
5785 5783 5781 5779 5776 5774 5772 5771 5769 5767 5765 5763 5761 5759 5756 5754 5752 5750 5748 5746 5744 5742 5739 5737 5735 5733 5730 5728 5726 5724 5721 5719 5716 5714 5711 5708 5706 5703 5700 5697 5694 5691 5688 5684 5681 5677 5673 5670 5666 5662 5659 5655 5651 5647 5644 5640 5636 5632 5629 5625 5620 5616 5612 5607 5602 5597 5592 5586 5581 5575 5571 5566 5558 5549 5542 5533 5524 5515 5507 5498 5489 5480 5472 5466 5462 5455 5446
5785 5783 5781 5779 5776 5774 5772 5770 5768 5766 5764 5762 5760 5758 5756 5753 5751 5749 5747 5744 5742 5740 5737 5735 5733 5730 5728 5726 5724 5721 5719 5716 5714 5711 5709 5706 5704 5701 5698 5695 5691 5688 5685 5681 5678 5674 5670 5666 5663 5659 5655 5651 5647 5644 5640 5637 5633 5629 5625 5620 5616 5611 5606 5601 5596 5590 5584 5580 5574 5568 5562 5557 5549 5540 5533 5525 5517 5509 5500 5491 5483 5475 5467 5461 5455 5450 5445
5785 5783 5781 5779 5777 5774 5772 5770 5768 5766 5763 5761 5759 5756 5754 5752 5750 5747 5745 5742 5740 5737 5735 5733 5730 5728 5726 5724 5721 5719 5717 5714 5712 5709 5707 5704 5701 5698 5695 5692 5688 5685 5681 5678 5674 5671 5667 5663 5659 5655 5652 5648 5644 5640 5637 5633 5629 5625 5621 5616 5611 5606 5600 5595 5590 5584 5578 5573 5567 5562 5556 5550 5543 5534 5525 5517 5510 5503 5495 5486 5478 5470 5463 5456 5449 5442 5436
5785 5783 5781 5779 5776 5774 5772 5769 5767 5765 5762 5760 5757 5755 5753 5750 5748 5745 5743 5740 5738 5735 5733 5731 5728 5726 5724 5722 5719 5717 5715 5712 5710 5707 5704 5702 5698 5695 5692 5689 5685 5682 5678 5675 5671 5667 5663 5660 5656 5652 5648 5644 5640 5637 5633 5629 5625 5621 5617 5612 5606 5601 5596 5590 5585 5580 5574 5568 5561 5555 5549 5544 5538 5530 5520 5511 5502 5494 5487 5480 5472 5465 5458 5450 5443 5436 5429
5786 5783 5781 5779 5776 5774 5771 5769 5766 5764 5761 5759 5756 5753 5751 5748 5746 5743 5741 5738 5736 5734 5731 5729 5727 5725 5722 5720 5718 5715 5713 5710 5708 5705 5702 5699 5696 5692 5689 5686 5682 5679 5675 5671 5667 5664 5660 5656 5652 5648 5644 5640 5637 5633 5629 5625 5620 5616 5612 5607 5602 5597 5592 5586 5580 5575 5570 5565 5558 5549 5541 5534 5530 5525 5517 5508 5499 5490 5482 5473 5465 5458 5451 5443 5436 5429 5423
5786 5784 5781 5779 5776 5774 5771 5768 5766 5763 5760 5757 5755 5752 5749 5747 5744 5742 5739 5737 5734 5732 5730 5728 5725 5723 5721 5718 5716 5713 5711 5708 5705 5702 5699 5696 5693 5689 5686 5682 5679 5675 5672 5668 5664 5660 5656 5652 5648 5644 5640 5637 5633 5629 5625 5621 5617 5612 5608 5603 5599 5594 5588 5582 5577 5571 5565 5559 5554 5547 5538 5528 5520 5514 5508 5501 5494 5485 5477 5468 5460 5452 5444 5437 5431 5423 5416
5787 5784 5782 5779 5777 5774 5771 5768 5765 5763 5760 5757 5754 5751 5748 5745 5743 5740 5738 5735 5733 5731 5728 5726 5724 5721 5719 5716 5714 5711 5708 5705 5702 5700 5696 5693 5690 5686 5683 5679 5676 5672 5668 5664 5660 5656 5652 5648 5644 5640 5637 5633 5629 5625 5621 5617 5612 5608 5603 5599 5594 5590 5585 5579 5572 5566 5559 5553 5547 5540 5533 5525 5516 5507 5498 5491 5483 5476 5469 5461 5454 5447 5438 5431 5424 5417 5410
5787 5785 5782 5780 5777 5774 5771 5768 5765 5762 5759 5756 5753 5750 5748 5745 5742 5739 5737 5734 5732 5729 5727 5724 5722 5719 5717 5714 5711 5709 5706 5703 5700 5697 5693 5690 5687 5683 5679 5676 5672 5668 5664 5660 5656 5652 5648 5645 5641 5637 5633 5629 5625 5621 5617 5613 5609 5604 5599 5595 5590 5585 5580 5574 5568 5561 5554 5548 5540 5533 5526 5519 5511 5503 5495 5486 5478 5470 5462 5454 5447 5441 5434 5426 5418 5411 5404
5788 5786 5783 5781 5778 5775 5772 5769 5766 5763 5759 5756 5753 5750 5747 5744 5741 5739 5736 5733 5731 5728 5726 5723 5720 5718 5715 5712 5709 5706 5703 5700 5697 5694 5690 5687 5684 5680 5676 5672 5669 5665 5661 5657 5653 5649 5645 5641 5637 5633 5629 5625 5621 5617 5614 5610 5606 5601 5596 5591 5586 5580 5575 5570 5563 5555 5548 5541 5534 5527 5519 5513 5506 5498 5491 5482 5474 5466 5459 5450 5442 5435 5428 5421 5413 5406 5399
5789 5786 5784 5781 5778 5776 5773 5769 5766 5763 5760 5756 5753 5750 5747 5744 5741 5738 5735 5733 5730 5727 5725 5722 5719 5716 5713 5710 5707 5704 5701 5698 5695 5691 5688 5684 5681 5677 5673 5669 5665 5661 5657 5653 5649 5645 5641 5637 5633 5629 5626 5622 5618 5614 5610 5606 5602 5597 5591 5586 5581 5575 5569 5563 5556 5549 5541 5534 5527 5520 5513 5507 5501 5494 5487 5479 5470 5462 5454 5446 5438 5430 5423 5415 5408 5401 5393
5790 5787 5784 5782 5779 5776 5773 5770 5767 5764 5760 5757 5754 5750 5747 5744 5741 5738 5735 5732 5729 5726 5723 5720 5717 5715 5712 5708 5705 5702 5699 5696 5692 5689 5685 5682 5678 5674 5670 5666 5662 5657 5653 5649 5645 5641 5637 5633 5629 5626 5622 5618 5614 5610 5606 5602 5598 5593 5587 5582 5576 5570 5563 5556 5550 5543 5535 5528 5520 5513 5507 5500 5493 5487 5481 5475 5467 5458 5450 5441 5433 5425 5418 5410 5404 5396 5388
5790 5787 5785 5782 5779 5776 5773 5770 5767 5764 5761 5757 5754 5751 5747 5744 5741 5738 5734 5731 5728 5725 5722 5719 5716 5713 5710 5706 5703 5700 5697 5693 5690 5686 5682 5678 5674 5670 5666 5662 5658 5654 5649 5645 5641 5637 5634 5630 5626 5622 5619 5615 5611 5607 5602 5598 5593 5588 5583 5577 5571 5565 5558 5551 5544 5537 5530 5523 5515 5508 5501 5494 5486 5478 5471 5464 5457 5450 5442 5434 5426 5418 5411 5403 5397 5390 5383
5790 5788 5785 5782 5779 5776 5773 5770 5767 5764 5761 5757 5754 5750 5747 5744 5740 5737 5734 5730 5727 5724 5721 5718 5714 5711 5708 5704 5701 5698 5694 5691 5687 5683 5679 5675 5671 5667 5662 5658 5654 5649 5645 5641 5637 5634 5630 5626 5622 5619 5615 5612 5607 5603 5598 5593 5589 5584 5578 5572 5566 5560 5553 5546 5539 5532 5524 5517 5509 5501 5493 5486 5479 5472 5464 5456 5448 5440 5433 5425 5418 5411 5404 5397 5390 5383 5376
5790 5787 5785 5782 5779 5776 5773 5770 5767 5764 5760 5757 5753 5750 5746 5743 5739 5736 5733 5729 5726 5723 5720 5716 5713 5710 5706 5703 5699 5696 5692 5688 5684 5680 5676 5672 5667 5663 5658 5654 5649 5645 5641 5637 5633 5630 5626 5623 5619 5615 5612 5607 5603 5598 5594 5589 5584 5579 5573 5567 5561 5554 5548 5541 5534 5527 5519 5511 5504 5496 5487 5478 5471 5464 5457 5449 5441 5434 5426 5419 5411 5404 5397 5389 5383 5376 5370
5790 5787 5784 5782 5779 5776 5773 5770 5766 5763 5760 5756 5753 5749 5745 5742 5739 5735 5732 5728 5725 5722 5718 5715 5711 5708 5704 5700 5696 5693 5689 5685 5681 5677 5672 5668 5664 5659 5654 5650 5645 5641 5637 5633 5630 5626 5622 5619 5615 5611 5608 5603 5599 5594 5590 5585 5580 5574 5568 5562 5556 5550 5543 5537 5530 5522 5515 5507 5499 5491 5483 5474 5466 5458 5451 5444 5436 5428 5421 5414 5406 5398 5391 5383 5376 5370 5363
5789 5787 5784 5781 5778 5775 5772 5769 5765 5762 5758 5755 5752 5748 5745 5741 5738 5734 5731 5727 5723 5720 5716 5713 5709 5705 5702 5698 5694 5690 5686 5682 5677 5673 5669 5664 5660 5656 5651 5646 5641 5638 5634 5630 5626 5623 5619 5615 5611 5607 5603 5599 5595 5590 5586 5580 5575 5569 5564 5558 5551 5545 5539 5532 5524 5517 5509 5502 5494 5486 5478 5469 5461 5453 5446 5439 5431 5422 5415 5409 5402 5394 5387 5379 5371 5364 5357
5789 5786 5783 5780 5777 5774 5771 5767 5764 5761 5757 5754 5750 5747 5743 5740 5736 5733 5729 5725 5721 5717 5714 5710 5706 5702 5699 5695 5691 5686 5682 5678 5674 5669 5665 5661 5656 5652 5647 5642 5638 5634 5631 5627 5623 5620 5616 5612 5607 5604 5600 5596 5591 5586 5581 5576 5571 5565 5559 5553 5546 5540 5533 5526 5519 5511 5504 5496 5488 5481 5473 5465 5457 5448 5440 5433 5426 5418 5410 5404 5397 5390 5383 5375 5368 5360 5352
5788 5785 5782 5779 5776 5773 5770 5766 5763 5760 5756 5753 5749 5746 5742 5738 5734 5731 5727 5723 5719 5715 5711 5707 5703 5699 5695 5691 5687 5683 5679 5674 5670 5666 5661 5657 5652 5648 5643 5639 5635 5631 5628 5625 5621 5617 5613 5609 5605 5601 5597 5592 5587 5582 5577 5572 5566 5561 5554 5548 5541 5535 5528 5521 5514 5506 5499 5491 5483 5476 5468 5461 5453 5444 5435 5427 5420 5413 5406 5399 5392 5385 5379 5372 5364 5356 5348
5786 5784 5781 5778 5775 5772 5768 5765 5761 5758 5755 5751 5747 5744 5740 5736 5732 5728 5724 5720 5716 5712 5708 5704 5700 5696 5692 5688 5684 5679 5675 5670 5666 5662 5657 5653 5648 5644 5640 5636 5632 5629 5626 5622 5618 5615 5610 5606 5602 5598 5593 5588 5583 5578 5573 5568 5562 5556 5550 5544 5537 5529 5522 5515 5508 5501 5494 5486 5479 5471 5463 5456 5448 5439 5430 5422 5415 5408 5400 5394 5388 5381 5374 5367 5359 5352 5344
5785 5782 5779 5776 5773 5770 5767 5763 5760 5756 5752 5749 5745 5741 5737 5733 5729 5725 5721 5717 5713 5709 5705 5701 5697 5693 5688 5684 5680 5675 5671 5666 5662 5657 5653 5649 5645 5641 5637 5633 5630 5626 5623 5620 5616 5612 5608 5603 5598 5594 5589 5585 5580 5574 5569 5563 5557 5551 5545 5539 5532 5525 5517 5510 5503 5496 5488 5481 5473 5465 5458 5450 5442 5434 5425 5417 5410 5403 5395 5388 5381 5375 5368 5361 5354 5346 5338
5783 5780 5777 5774 5771 5768 5765 5761 5758 5754 5750 5746 5743 5738 5734 5730 5726 5722 5717 5713 5709 5705 5701 5697 5693 5689 5685 5680 5676 5671 5667 5662 5658 5653 5649 5645 5641 5637 5634 5630 5627 5623 5620 5617 5613 5609 5604 5600 5595 5590 5586 5581 5576 5570 5564 5559 5553 5547 5540 5534 5527 5519 5512 5505 5497 5490 5483 5476 5468 5460 5453 5445 5436 5428 5420 5411 5404 5397 5391 5384 5377 5370 5363 5356 5348 5340 5333
5781 5778 5775 5772 5769 5766 5762 5759 5755 5752 5748 5744 5740 5736 5731 5727 5723 5718 5714 5710 5706 5702 5698 5693 5689 5685 5681 5676 5672 5667 5663 5658 5654 5649 5645 5641 5637 5634 5630 5627 5624 5620 5617 5613 5609 5605 5601 5596 5591 5586 5582 5577 5571 5566 5560 5554 5548 5542 5535 5529 5522 5514 5507 5499 5492 5485 5478 5471 5463 5455 5447 5439 5431 5423 5415 5407 5399 5392 5386 5379 5372 5365 5358 5351 5344 5336 5327
5779 5776 5773 5770 5767 5764 5760 5757 5753 5749 5746 5741 5737 5733 5728 5724 5720 5715 5711 5707 5703 5698 5694 5690 5686 5681 5677 5672 5668 5664 5659 5654 5650 5645 5641 5637 5634 5630 5627 5624 5621 5617 5614 5610 5606 5602 5598 5593 5588 5583 5578 5572 5567 5561 5555 5549 5543 5537 5530 5523 5516 5509 5502 5494 5487 5480 5472 5465 5457 5450 5442 5434 5426 5418 5410 5403 5395 5388 5382 5375 5368 5361 5353 5346 5339 5331 5323
5777 5774 5771 5768 5765 5762 5758 5755 5751 5747 5743 5739 5734 5730 5726 5721 5717 5712 5708 5703 5699 5694 5690 5686 5681 5677 5673 5668 5664 5659 5655 5650 5646 5642 5638 5634 5630 5627 5624 5621 5617 5614 5610 5606 5603 5598 5594 5589 5584 5579 5574 5569 5563 5557 5551 5545 5539 5532 5525 5519 5512 5504 5497 5489 5481 5473 5466 5459 5452 5444 5436 5428 5420 5413 5406 5399 5392 5384 5377 5370 5364 5357 5349 5342 5335 5327 5320
5775 5773 5770 5766 5763 5759 5756 5752 5748 5744 5740 5735 5731 5727 5722 5718 5713 5708 5704 5699 5695 5690 5686 5682 5677 5673 5669 5664 5660 5655 5651 5646 5642 5638 5634 5631 5627 5624 5621 5618 5614 5610 5607 5603 5599 5595 5590 5586 5581 5576 5570 5565 5560 5553 5547 5541 5534 5528 5521 5514 5507 5499 5492 5484 5476 5468 5461 5454 5447 5440 5431 5423 5415 5407 5400 5394 5387 5380 5373 5366 5359 5353 5346 5338 5330 5322 5315
5773 5770 5767 5764 5760 5757 5753 5749 5745 5741 5737 5732 5728 5723 5719 5714 5709 5705 5700 5695 5691 5687 5682 5678 5674 5669 5664 5660 5656 5651 5647 5643 5639 5635 5631 5628 5624 5621 5618 5614 5611 5607 5603 5599 5595 5591 5586 5582 5577 5572 5566 5561 5555 5549 5543 5536 5530 5523 5516 5509 5502 5495 5488 5480 5472 5465 5457 5450 5442 5434 5426 5417 5409 5402 5395 5389 5382 5376 5370 5363 5356 5349 5342 5334 5326 5317 5308